Lapse_Rate
6.5 6.5 6.5 6.5 6.6 6.7 6.9 6.8 6.7 6.8 7.0 7.3 7.6 7.6 7.5 7.4 7.2 7.1 7.0 6.9 6.8 6.9 6.8 6.8 6.6 6.5 6.3 6.2 6.1 5.9 6.0 5.7 5.5 5.3 5.2 5.0 4.8 4.7 4.4 4.1 4.0 3.5 4.2 4.2 4.5 4.9 4.3
6.5 6.6 6.7 6.8 6.9 6.9 7.0 7.1 7.1 7.1 7.2 7.3 7.4 7.6 7.6 7.6 7.5 7.4 7.2 7.1 7.0 6.9 7.0 6.9 6.7 6.5 6.4 6.2 6.1 6.1 6.1 5.8 5.6 5.3 5.3 5.3 4.9 5.0 5.2 5.0 5.2 5.4 5.7 6.1 6.2 6.1 5.8
6.6 6.8 6.9 7.0 7.1 7.2 7.3 7.3 7.2 7.3 7.4 7.5 7.6 7.7 7.6 7.6 7.6 7.5 7.5 7.3 7.2 7.1 7.0 7.0 6.8 6.6 6.4 6.2 6.1 6.1 6.2 6.0 5.8 5.6 5.6 5.6 5.5 5.4 5.5 5.6 6.0 6.4 6.3 6.6 6.9 6.3 6.2
6.7 6.8 6.8 6.9 7.1 7.3 7.4 7.5 7.5 7.4 7.4 7.6 7.7 7.7 7.7 7.7 7.6 7.6 7.6 7.5 7.5 7.3 7.2 7.1 6.9 6.7 6.6 6.3 6.2 6.2 6.2 6.0 5.8 5.6 5.8 5.8 5.7 5.8 5.7 5.9 6.3 6.4 6.4 6.2 6.8 6.7 6.4
6.7 6.8 6.9 7.0 7.1 7.2 7.5 7.6 7.6 7.6 7.6 7.5 7.5 7.6 7.7 7.7 7.7 7.7 7.6 7.5 7.5 7.5 7.3 7.2 7.0 6.8 6.6 6.3 6.2 6.2 6.3 6.2 6.0 5.9 6.0 6.0 6.1 6.0 5.7 5.6 6.1 6.1 6.1 5.6 5.9 6.5 6.5
6.6 6.7 7.0 7.0 6.9 6.9 7.0 7.3 7.5 7.7 7.7 7.7 7.7 7.5 7.4 7.5 7.7 7.6 7.7 7.7 7.6 7.6 7.4 7.3 7.0 6.9 6.7 6.4 6.3 6.3 6.4 6.3 6.1 6.0 5.9 6.2 6.3 6.2 5.9 5.6 5.6 5.7 5.6 5.8 5.8 6.6 6.3
6.7 6.8 6.8 6.6 6.8 6.8 6.8 6.8 6.9 7.1 7.4 7.6 7.6 7.6 7.5 7.4 7.6 7.6 7.6 7.8 7.8 7.8 7.5 7.4 7.4 6.9 6.7 6.6 6.4 6.4 6.4 6.4 6.4 6.2 6.2 6.1 6.3 6.1 6.2 5.8 5.4 5.6 5.6 6.1 6.1 6.3 5.7
6.6 6.8 6.7 6.7 6.9 7.0 7.0 6.9 6.8 6.7 6.8 6.9 7.3 7.4 7.6 7.4 7.4 7.6 7.6 7.7 7.7 7.6 7.7 7.6 7.3 7.0 6.8 6.7 6.6 6.4 6.4 6.5 6.4 6.2 6.1 6.0 6.5 6.2 6.1 5.7 5.6 5.6 5.3 5.8 6.0 6.6 6.2
6.3 6.4 6.3 6.3 6.5 6.8 7.1 7.2 7.1 6.8 6.7 6.8 6.8 6.8 7.1 7.4 7.2 7.3 7.4 7.6 7.6 7.7 7.7 7.6 7.3 7.0 6.7 6.6 6.6 6.5 6.5 6.5 6.6 6.4 6.1 6.1 6.5 6.3 6.2 6.2 5.8 6.2 5.6 5.9 6.0 6.2 6.9
6.6 6.5 6.5 6.5 6.5 6.5 6.6 7.0 7.1 7.0 6.9 6.6 6.6 6.6 6.7 6.9 7.1 6.9 7.2 7.2 7.3 7.6 7.5 7.4 7.3 7.0 6.7 6.6 6.6 6.4 6.5 6.3 6.3 6.4 6.3 6.3 6.1 6.2 6.3 6.2 5.8 5.9 6.2 6.0 5.8 5.6 6.0
6.3 6.3 6.0 6.5 6.5 6.4 6.2 6.4 6.6 6.9 7.1 6.7 6.6 6.5 6.5 6.4 6.7 6.8 6.8 6.8 7.0 7.3 4.6 7.3 7.2 7.0 6.8 6.6 6.5 6.5 6.5 6.6 6.5 6.5 6.3 6.3 6.4 6.3 6.3 6.2 6.1 6.2 6.0 5.8 5.8 5.7 5.6
6.1 5.9 5.8 5.9 5.9 5.6 5.6 5.6 6.1 6.5 6.6 6.9 6.7 6.7 6.5 6.4 6.4 6.5 6.6 6.7 6.8 6.9 6.4 7.2 6.9 6.7 6.7 6.9 6.7 6.6 6.5 6.4 6.5 6.7 6.6 6.6 6.5 6.5 6.4 6.4 6.1 5.9 5.9 5.8 5.8 5.8 5.7
5.7 5.7 5.6 5.5 5.2 5.2 4.9 4.9 5.5 6.1 6.1 6.5 7.0 6.7 6.4 6.3 6.3 6.3 6.4 6.5 6.7 6.5 6.9 6.7 6.6 6.5 6.6 6.7 6.7 6.5 6.4 6.1 6.2 6.0 6.3 6.7 6.6 6.7 6.6 6.4 6.4 6.0 5.5 4.9 5.2 4.6 6.0
5.4 5.4 5.3 5.3 5.2 4.9 4.7 4.6 4.9 5.5 5.7 6.1 6.9 6.7 6.5 6.3 6.2 6.3 6.3 6.1 6.4 6.8 6.8 6.6 6.4 6.5 6.4 6.4 6.4 6.3 6.2 6.2 6.4 6.1 5.8 5.6 6.2 6.4 6.5 6.5 6.2 6.2 5.9 5.9 5.3 4.9 5.7
5.6 5.5 5.4 5.1 5.0 4.8 4.7 4.7 4.8 5.2 5.6 6.2 6.3 6.8 6.6 6.1 6.1 6.2 6.1 5.8 6.7 6.8 6.5 6.5 6.6 6.4 6.3 6.1 6.0 6.0 6.3 6.2 6.2 6.2 6.0 5.7 6.1 6.3 6.4 6.4 6.4 6.4 6.6 6.3 6.3 6.2 6.4
5.5 5.4 5.4 5.3 5.3 5.1 5.0 5.0 5.0 5.3 5.2 5.9 6.1 6.5 6.7 6.2 6.1 6.1 5.9 5.9 6.2 6.5 6.4 6.2 6.2 6.2 6.0 5.9 5.7 6.0 6.1 6.3 6.1 6.1 6.0 5.8 5.4 6.3 6.4 6.5 6.5 6.6 6.6 6.6 6.7 6.8 6.6
5.5 5.3 5.3 5.4 5.4 5.1 5.1 5.0 5.1 5.2 5.2 5.4 5.7 6.2 6.3 6.4 6.1 6.0 5.9 5.8 6.0 6.2 6.1 5.9 6.0 6.0 6.3 6.0 5.9 5.7 6.2 6.5 5.9 5.8 5.8 5.7 5.3 6.7 6.1 6.5 6.5 6.5 6.6 6.6 6.5 6.8 7.0
5.2 5.2 5.2 5.3 5.2 5.1 5.0 4.9 5.1 5.0 5.1 5.2 5.2 4.8 5.8 6.0 6.0 6.1 6.1 5.7 5.7 5.8 5.9 5.7 5.9 6.2 6.1 6.0 6.0 5.7 6.0 6.1 6.2 5.8 5.7 5.9 5.5 5.5 6.5 6.4 6.7 6.5 6.4 6.4 6.5 6.7 6.9
4.8 4.8 4.9 5.0 5.2 4.9 5.0 4.9 5.0 4.7 4.7 5.0 4.9 4.4 5.7 5.6 6.0 6.4 5.9 5.6 5.6 5.7 5.7 5.5 5.7 6.0 5.8 5.9 5.7 5.9 5.9 6.0 6.1 5.8 5.7 5.6 5.5 5.2 6.2 6.5 6.3 6.3 6.3 6.3 6.3 6.4 6.4
4.9 4.9 4.8 4.9 5.0 4.9 5.1 5.2 4.7 4.6 4.5 4.6 4.1 4.3 5.1 5.9 5.9 5.7 5.6 5.8 5.6 5.7 5.9 5.3 5.5 5.6 5.5 5.6 5.8 5.8 6.0 5.7 5.8 5.9 5.8 5.5 5.6 5.9 5.6 6.2 5.8 5.8 6.2 6.1 5.7 5.8 6.2
4.6 4.8 4.8 4.8 4.3 4.5 4.5 4.9 5.0 4.5 4.4 4.1 4.1 4.2 4.3 5.2 5.3 5.0 4.7 5.8 5.8 5.8 5.5 5.4 5.2 5.5 5.3 5.1 5.5 5.7 5.7 5.6 5.6 5.8 5.8 5.5 5.3 5.7 5.8 6.0 6.1 6.5 6.6 6.6 5.9 6.2 5.6
4.7 4.7 5.0 4.9 4.2 3.8 4.1 4.5 4.3 4.6 4.1 4.2 3.5 3.7 3.9 3.9 4.4 4.7 4.6 5.8 5.8 6.0 5.4 5.4 5.3 5.4 5.0 5.0 5.2 5.1 5.4 5.6 5.4 5.5 5.4 5.4 5.3 5.2 6.3 6.7 6.1 6.4 6.8 6.8 6.6 6.4 6.1
4.8 4.9 4.8 4.8 4.0 3.6 3.6 3.8 3.9 4.0 3.9 4.0 3.6 3.5 3.4 3.9 4.5 3.8 4.6 5.0 5.4 5.8 5.9 5.3 5.2 5.1 5.0 5.0 4.9 5.1 5.2 5.6 5.5 5.5 5.2 5.0 4.9 4.9 5.7 6.6 6.1 6.7 6.9 6.7 6.5 6.3 6.2
4.7 4.7 4.5 4.5 3.9 3.5 3.7 3.7 3.7 3.7 4.1 3.8 3.5 3.4 3.3 3.2 3.8 4.0 3.9 4.2 4.7 4.9 4.8 5.6 5.3 5.0 5.3 5.0 5.1 5.3 5.3 5.9 6.2 6.5 6.0 5.2 4.9 4.8 4.9 5.9 5.3 6.9 6.8 6.7 6.6 6.5 6.4
4.3 4.3 4.2 3.9 3.8 3.5 3.6 3.8 3.8 3.7 3.5 3.8 3.7 3.6 3.3 3.0 3.4 4.4 4.1 3.6 4.0 5.0 4.7 5.0 5.4 5.7 5.4 5.3 5.1 5.1 5.3 6.4 6.7 6.9 6.7 5.8 5.0 4.8 5.0 5.0 6.6 6.9 6.8 6.7 6.7 6.7 6.7
4.1 4.1 3.9 3.7 3.4 3.4 3.4 3.4 3.6 3.8 3.1 2.7 3.2 3.3 3.4 3.0 3.3 4.0 4.3 4.0 3.9 3.9 4.4 5.4 5.3 5.0 5.1 5.2 5.2 5.0 5.1 5.9 6.3 6.6 6.5 5.9 4.9 4.9 4.7 4.7 5.6 7.0 6.8 6.7 6.6 6.7 6.8
4.1 4.2 3.9 3.6 3.4 3.1 2.9 2.6 2.6 2.3 2.5 2.4 2.8 3.2 3.0 3.1 3.1 3.5 3.8 4.2 4.1 4.1 3.7 4.2 4.7 4.8 4.7 4.9 5.0 4.9 4.9 5.1 5.6 6.3 6.6 6.0 5.0 5.1 4.8 4.7 6.6 7.1 6.8 6.7 6.6 7.0 6.9
4.1 4.0 3.7 3.5 3.3 3.0 2.4 2.4 2.6 2.4 2.3 2.2 2.6 2.9 2.8 2.7 2.8 2.5 3.1 3.5 3.8 3.7 3.8 4.3 4.4 4.8 4.7 4.7 4.6 4.7 5.0 5.5 5.6 5.9 6.3 6.5 6.4 5.9 4.8 4.7 5.6 7.2 7.0 7.0 6.9 7.1 7.1
3.8 3.6 3.4 3.3 3.0 2.9 2.4 2.5 2.6 2.6 2.8 2.5 2.3 3.3 3.0 2.5 2.7 3.1 2.9 3.2 3.6 4.4 3.9 3.7 3.8 4.1 4.6 4.8 4.8 4.9 5.1 5.4 5.7 5.8 6.2 6.0 6.7 6.5 6.6 7.1 7.1 6.9 6.8 6.9 7.0 6.8 6.9
Wind_Speed
7 7 8 9 10 12 12 12 12 13 13 13 14 15 15 16 17 18 18 19 18 17 16 15 16 17 7 3 3 3 3 7 6 5 5 5 5 3 2 5 6 3 3 7 10 10 6
8 8 7 9 10 10 11 11 13 13 13 13 14 15 16 17 18 19 20 20 19 17 16 15 14 16 3 1 3 2 2 4 4 3 4 4 3 3 4 4 2 4 7 11 6 11 6
6 7 7 9 10 10 11 12 12 14 14 15 15 16 17 18 19 20 20 20 18 17 15 14 12 5 3 5 0 3 1 2 2 1 3 2 2 2 3 5 4 6 7 8 6 5 6
3 5 5 6 9 10 10 11 12 12 14 14 17 17 19 21 21 22 22 21 18 16 14 13 9 2 5 3 3 1 0 3 4 3 2 6 3 3 3 4 5 4 4 5 6 9 2
3 3 3 3 4 6 9 10 12 13 13 15 16 18 21 23 24 25 25 24 18 11 7 6 0 1 6 1 2 3 2 2 5 2 3 4 2 2 2 3 4 4 3 9 10 7 5
4 4 4 4 4 6 7 9 10 12 15 15 17 19 21 23 25 27 26 18 1 3 2 3 3 2 4 2 2 2 2 2 2 5 5 1 2 1 3 3 3 5 9 6 9 5 10
6 6 6 7 6 5 7 9 9 11 13 15 17 20 21 23 26 28 14 3 5 3 2 4 2 4 3 3 1 2 2 2 1 2 2 3 2 5 9 6 8 7 6 12 9 7 11
9 8 8 8 7 8 8 7 10 11 13 15 17 20 23 24 26 22 3 4 2 4 7 6 6 6 6 1 3 2 1 2 2 2 5 4 5 7 5 6 8 8 7 10 8 4 11
10 11 10 10 8 8 8 7 7 9 13 15 17 19 23 25 23 4 3 3 5 1 2 6 3 2 1 2 3 3 2 0 2 1 2 4 6 7 5 4 6 6 6 7 10 5 6
11 12 10 10 9 8 7 7 9 9 10 13 15 18 21 30 4 4 2 8 8 2 4 3 2 2 1 1 2 1 1 1 2 2 4 6 5 3 3 4 4 7 4 6 6 7 4
10 13 12 9 10 10 10 9 9 11 11 12 14 16 17 13 4 1 3 9 6 3 4 2 2 1 2 2 2 2 2 2 3 3 4 6 3 3 3 5 1 6 3 4 7 9 5
9 11 11 12 14 9 12 11 10 11 11 13 13 15 16 4 3 4 9 5 3 5 5 2 2 1 2 3 2 1 2 2 2 2 3 7 2 3 4 2 2 4 4 5 3 3 3
9 9 9 10 13 12 13 12 11 12 11 12 15 16 10 4 2 9 7 2 5 5 4 3 3 2 3 3 3 5 2 2 2 4 4 6 3 3 3 2 4 2 3 4 4 3 4
8 7 8 10 12 13 13 12 15 12 11 13 15 20 4 6 6 7 3 4 3 4 5 3 2 3 4 2 3 3 2 4 4 1 2 1 8 5 4 6 5 1 1 1 4 2 5
6 8 9 10 11 11 13 15 13 15 11 10 14 4 3 4 4 2 3 2 6 6 3 4 7 2 3 2 2 1 5 3 5 8 4 1 5 3 5 4 7 2 3 4 4 3 3
4 5 6 8 10 10 12 12 14 11 9 4 2 3 3 2 2 3 3 5 4 3 0 1 1 1 3 3 3 2 2 3 3 7 3 3 6 4 3 3 5 5 4 1 2 4 4
4 5 5 6 7 9 11 14 14 15 8 2 2 3 2 2 2 3 3 5 5 3 0 2 3 4 4 3 2 3 5 3 3 2 5 3 4 6 1 5 5 3 3 4 3 2 3
6 5 6 7 7 9 10 13 16 13 2 1 0 1 2 1 1 1 2 4 4 3 0 3 2 4 4 3 4 3 4 3 4 5 3 4 3 5 11 5 4 5 6 6 3 5 3
6 7 7 8 8 9 11 10 13 14 8 0 1 2 1 1 3 3 4 4 2 2 4 2 3 6 1 2 3 5 4 2 5 6 4 3 2 5 10 4 1 3 4 4 3 1 5
5 6 8 9 9 11 11 11 10 12 12 1 1 2 1 1 1 2 1 4 4 4 4 3 4 3 2 3 5 6 3 2 2 3 3 1 3 7 7 13 2 11 10 7 6 3 6
6 5 6 7 10 11 11 11 10 7 10 2 2 4 3 3 4 5 5 2 2 3 2 2 2 4 4 3 4 5 4 4 2 4 3 3 5 4 12 19 17 17 18 14 10 14 8
9 7 6 8 9 12 11 10 11 6 9 0 2 2 2 2 2 5 7 5 5 4 4 4 5 9 3 5 7 13 13 4 7 1 4 2 4 4 8 7 3 9 11 9 7 5 10
10 8 7 8 11 13 12 12 11 8 3 1 3 4 2 4 2 1 5 6 5 3 6 8 3 5 6 10 9 11 8 7 10 7 7 4 3 4 6 6 10 4 4 3 3 5 5
11 9 9 10 12 14 13 12 11 10 6 2 2 1 2 4 5 4 6 9 13 13 9 14 8 5 6 5 6 6 8 13 10 10 8 5 4 3 5 7 3 4 2 4 5 6 6
10 10 11 13 14 14 13 12 13 10 9 3 2 1 2 4 7 8 10 8 7 10 13 14 15 9 4 3 4 7 5 4 2 2 6 6 4 2 3 3 7 3 3 4 4 4 2
12 14 14 15 16 16 15 12 5 4 4 4 3 2 2 2 7 12 12 10 9 9 12 12 14 4 4 3 3 4 4 4 4 2 6 4 3 4 0 3 4 2 2 2 2 4 3
16 16 14 15 17 17 13 9 8 7 7 4 3 7 2 4 8 10 5 4 4 5 5 5 6 2 2 3 4 5 7 5 5 6 5 4 2 8 5 4 8 5 3 3 0 4 3
9 8 6 6 6 5 6 8 10 12 12 7 4 9 4 5 10 11 11 11 8 6 6 3 4 1 1 4 3 4 5 5 4 4 7 9 8 4 4 4 8 7 4 4 2 1 2
7 7 7 7 8 9 11 12 14 16 15 14 5 9 12 8 8 7 11 21 21 18 1 4 5 1 3 2 2 2 4 2 4 4 1 3 7 5 9 6 3 4 4 2 2 3 3
Wind_Direction
53 59 54 41 28 17 16 19 14 9 6 2 357 356 350 345 339 334 330 327 323 320 320 321 323 327 339 31 247 215 320 7 353 5 9 1 22 14 355 311 317 229 290 314 300 291 273
48 34 27 30 28 18 14 10 9 359 357 356 356 353 346 341 336 332 328 323 319 317 315 313 318 324 310 224 161 166 31 352 342 357 340 1 328 289 261 265 277 295 298 294 282 289 272
44 33 28 23 17 16 16 9 6 359 355 352 350 348 344 338 334 330 325 319 314 310 307 306 310 310 290 217 217 338 68 299 277 291 293 276 290 350 325 297 321 271 287 297 287 330 287
36 27 30 34 14 5 5 3 358 355 353 350 345 343 340 335 332 328 322 315 305 300 298 296 292 297 251 251 272 210 315 324 308 291 230 256 257 241 208 288 317 313 351 350 322 344 292
338 339 356 3 9 7 356 353 348 348 350 352 345 341 338 335 331 329 324 315 302 289 280 270 300 164 277 333 256 224 189 275 307 305 302 256 240 245 311 294 355 359 292 311 316 323 297
284 295 294 312 335 346 351 349 348 343 342 344 340 341 339 336 332 330 329 319 0 56 70 139 260 353 277 262 225 232 248 243 304 331 6 43 43 349 347 70 262 270 290 265 274 280 293
270 284 297 297 294 311 331 339 338 339 335 338 341 339 338 336 333 331 339 7 13 5 13 230 273 265 264 311 36 254 281 351 16 53 8 301 16 260 256 245 266 281 261 268 285 274 291
263 270 282 288 299 309 318 325 333 334 337 338 337 336 334 334 332 331 359 64 83 224 315 277 250 253 265 198 300 261 301 9 17 307 335 355 246 266 265 270 287 278 283 286 288 279 311
270 264 267 279 294 307 312 320 328 331 332 333 334 334 333 332 327 35 32 42 332 59 274 295 224 229 245 158 268 260 179 152 247 297 282 215 250 311 281 293 309 280 246 269 272 323 270
2 272 267 274 276 282 281 292 305 319 326 324 329 335 337 334 46 331 74 323 342 104 46 252 243 244 169 177 271 101 203 141 311 292 308 247 275 279 308 286 250 288 294 286 305 336 293
10 7 21 314 279 268 276 284 291 304 313 322 322 332 339 -0 303 21 284 324 329 63 22 242 207 77 153 216 314 210 328 60 222 248 76 260 276 297 275 232 55 243 325 279 283 275 297
337 352 352 351 7 322 270 271 278 289 303 312 320 320 333 352 329 261 317 329 60 43 264 333 111 264 267 176 254 42 328 355 243 274 221 247 266 254 221 56 31 325 323 297 249 255 258
334 338 338 351 347 345 359 290 268 278 294 307 314 312 313 280 234 319 329 47 31 128 309 329 293 185 241 235 224 185 209 270 221 21 344 315 252 255 162 313 356 15 308 334 347 353 242
357 352 354 355 347 342 344 336 355 276 284 305 320 317 301 231 233 340 35 45 114 252 260 333 331 285 241 238 226 186 281 282 229 159 48 58 326 198 172 200 186 216 162 218 279 292 281
359 360 3 348 340 341 341 335 337 349 281 309 328 332 304 301 227 97 74 63 210 201 270 356 325 348 302 295 223 196 214 239 219 178 171 337 268 268 202 154 149 204 229 194 259 249 271
335 342 352 2 7 354 348 338 333 327 318 345 21 348 279 308 134 67 85 241 252 228 168 75 246 198 288 293 309 130 251 212 249 195 158 270 297 243 318 119 226 173 307 307 254 302 282
306 307 329 343 355 348 344 347 337 339 334 124 64 332 264 102 63 55 181 237 278 285 127 172 240 283 270 287 257 274 267 279 205 185 160 172 169 284 308 203 195 140 243 215 251 221 301
18 22 354 347 343 339 340 343 346 345 55 76 103 273 297 50 90 213 191 207 283 272 350 268 236 231 232 291 272 268 253 249 156 153 212 226 211 273 244 235 220 194 216 186 149 276 241
348 343 347 349 -0 351 346 337 347 354 348 5 211 257 333 71 224 213 282 291 266 278 224 229 254 215 178 259 312 235 269 256 172 168 203 190 279 314 329 6 337 222 214 214 234 231 222
330 326 323 326 330 331 337 339 332 344 346 243 295 291 250 156 285 148 247 255 258 297 254 198 253 214 244 273 231 279 269 297 221 233 147 130 226 203 234 264 305 285 263 248 208 230 252
281 303 315 322 321 325 330 338 323 332 336 290 223 244 209 224 232 196 184 255 282 308 249 209 284 226 213 287 298 241 264 291 241 211 174 174 251 239 254 264 272 268 273 273 215 238 228
276 281 286 306 314 312 311 329 332 305 324 290 283 239 351 265 257 162 192 214 210 219 215 264 219 262 205 216 226 285 290 283 249 111 185 194 270 323 292 271 229 276 269 250 235 231 245
300 275 286 294 299 300 304 311 315 299 332 328 310 354 337 241 280 248 202 207 231 7 264 239 307 313 285 248 240 239 233 231 237 201 200 195 203 352 270 322 309 298 251 224 265 210 211
287 273 279 288 292 288 299 302 306 287 219 148 260 313 310 259 252 237 277 289 291 285 255 288 296 234 248 285 299 282 254 251 242 232 181 180 162 169 282 328 321 244 219 202 224 269 256
285 281 286 285 287 294 293 296 292 267 213 152 194 144 261 265 262 279 270 282 313 298 286 287 279 249 274 284 302 318 313 312 250 205 189 174 145 261 262 274 283 279 213 193 188 274 221
295 290 288 288 289 291 292 283 262 220 222 151 197 201 222 245 232 238 257 271 283 289 295 281 266 235 187 199 175 227 248 302 286 62 43 116 120 173 345 266 260 252 215 155 141 283 189
301 284 276 283 286 288 283 248 234 244 241 215 247 189 250 261 235 246 244 246 206 239 262 293 322 299 144 184 211 225 248 257 264 192 174 143 194 215 214 271 283 240 162 135 187 248 162
14 26 11 348 343 323 287 271 271 273 268 246 249 218 208 267 268 262 254 237 260 264 243 263 334 294 55 170 194 214 212 236 235 202 179 171 166 196 174 209 273 158 108 196 207 237 196
352 355 341 333 324 318 303 298 292 288 285 279 261 247 222 243 258 288 262 243 238 238 231 240 245 222 254 205 233 289 249 244 216 254 123 226 193 181 191 213 240 212 212 155 192 181 188